| time (UTC) | temp F | wind direction | speed MPH | gust MPH | rain 1hr in | rain 24hr in | rain mn in | humidity % | barometer mb |
| 20260903110104 | 71 | 281 | 0.0 | 2.0 | 0.00 | 0.14 | 0.14 | 96 | 1015.4 |
| 20260903104524 | 71 | 152 | 0.0 | 1.0 | 0.00 | 0.14 | 0.14 | 96 | 1015.1 |
| 20260903103023 | 71 | 152 | 0.0 | 1.0 | 0.00 | 0.14 | 0.14 | 96 | 1014.7 |
| 20260903101522 | 71 | 360 | 0.0 | 0.0 | 0.00 | 0.14 | 0.14 | 96 | 1014.6 |
| 20260903100026 | 71 | 60 | 0.0 | 1.0 | 0.00 | 0.14 | 0.14 | 96 | 1014.3 |
| 20260903094542 | 70 | 157 | 0.0 | 1.0 | 0.00 | 0.14 | 0.14 | 96 | 1014.4 |
| 20260903093016 | 70 | 162 | 0.0 | 0.0 | 0.01 | 0.14 | 0.14 | 95 | 1014.6 |
| 20260903091514 | 69 | 170 | 0.0 | 2.0 | 0.14 | 0.14 | 0.14 | 95 | 1014.7 |
| 20260903090013 | 69 | 153 | 0.0 | 2.0 | 0.14 | 0.14 | 0.14 | 95 | 1014.7 |
| 20260903084510 | 68 | 134 | 1.0 | 5.0 | 0.14 | 0.14 | 0.14 | 95 | 1014.8 |
| 20260903083009 | 68 | 159 | 2.0 | 4.0 | 0.13 | 0.13 | 0.13 | 94 | 1014.8 |
| 20260903081621 | 68 | 184 | 2.0 | 4.0 | 0.00 | 0.00 | 0.00 | 93 | 1015.1 |
| 20260903080005 | 68 | 125 | 0.0 | 3.0 | 0.00 | 0.00 | 0.00 | 92 | 1015.5 |
| 20260903074504 | 68 | 156 | 2.0 | 4.0 | 0.00 | 0.00 | 0.00 | 92 | 1015.5 |
| 20260903073001 | 68 | 244 | 1.0 | 3.0 | 0.00 | 0.00 | 0.00 | 90 | 1015.5 |
| 20260903071600 | 68 | 123 | 0.0 | 3.0 | 0.00 | 0.00 | 0.00 | 89 | 1015.4 |
| 20260903070057 | 68 | 151 | 0.0 | 2.0 | 0.00 | 0.00 | 0.00 | 88 | 1015.8 |
| 20260903064554 | 68 | 92 | 0.0 | 1.0 | 0.00 | 0.00 | 0.00 | 88 | 1016.5 |
| 20260903063053 | 68 | 125 | 0.0 | 1.0 | 0.00 | 0.00 | 0.00 | 87 | 1016.5 |
| 20260903061554 | 68 | 164 | 0.0 | 3.0 | 0.00 | 0.00 | 0.00 | 87 | 1016.9 |
| 20260903060051 | 67 | 156 | 0.0 | 2.0 | 0.00 | 0.00 | 0.00 | 87 | 1017.0 |
| 20260903054550 | 67 | 218 | 1.0 | 5.0 | 0.00 | 0.00 | 0.00 | 87 | 1017.2 |
| 20260903053103 | 68 | 149 | 1.0 | 5.0 | 0.00 | 0.00 | 0.00 | 86 | 1017.6 |
| 20260903051544 | 68 | 151 | 0.0 | 4.0 | 0.00 | 0.00 | 0.00 | 85 | 1017.7 |
| 20260903050041 | 68 | 174 | 1.0 | 4.0 | 0.00 | 0.00 | 0.00 | 84 | 1017.9 |
| 20260903044550 | 68 | 127 | 0.0 | 1.0 | 0.00 | 0.00 | 0.00 | 82 | 1018.2 |
| 20260903043039 | 68 | 219 | 0.0 | 2.0 | 0.00 | 0.00 | 0.00 | 81 | 1018.3 |
| 20260903041537 | 68 | 128 | 0.0 | 3.0 | 0.00 | 0.00 | 0.00 | 80 | 1018.2 |
| 20260903040034 | 67 | 107 | 2.0 | 5.0 | 0.00 | 0.00 | 0.00 | 80 | 1018.0 |
| 20260903034533 | 67 | 166 | 1.0 | 5.0 | 0.00 | 0.00 | 0.00 | 79 | 1017.9 |
| 20260903033031 | 67 | 145 | 1.0 | 4.0 | 0.00 | 0.00 | 0.00 | 80 | 1018.2 |
| 20260903031529 | 67 | 99 | 0.0 | 3.0 | 0.00 | 0.00 | 0.00 | 80 | 1018.7 |
| 20260903030038 | 67 | 78 | 0.0 | 4.0 | 0.00 | 0.00 | 0.00 | 80 | 1018.7 |
| 20260903024538 | 67 | 104 | 0.0 | 3.0 | 0.00 | 0.00 | 0.00 | 79 | 1019.0 |
| 20260903023028 | 67 | 165 | 0.0 | 3.0 | 0.00 | 0.00 | 0.00 | 77 | 1019.1 |
| 20260903021532 | 67 | 246 | 0.0 | 3.0 | 0.00 | 0.00 | 0.00 | 77 | 1019.1 |
| 20260903020031 | 66 | 215 | 0.0 | 2.0 | 0.00 | 0.00 | 0.00 | 79 | 1018.8 |
| 20260903014526 | 66 | 138 | 0.0 | 2.0 | 0.00 | 0.01 | 0.00 | 78 | 1019.3 |
| 20260903013025 | 66 | 206 | 0.0 | 2.0 | 0.00 | 0.01 | 0.00 | 77 | 1019.3 |
| 20260903011537 | 66 | 125 | 0.0 | 6.0 | 0.00 | 0.01 | 0.00 | 76 | 1019.4 |
| 20260903010024 | 66 | 74 | 0.0 | 3.0 | 0.00 | 0.01 | 0.00 | 76 | 1019.6 |
| 20260903004530 | 66 | 99 | 1.0 | 6.0 | 0.00 | 0.01 | 0.00 | 76 | 1019.3 |
| 20260903003022 | 67 | 345 | 0.0 | 4.0 | 0.00 | 0.01 | 0.00 | 75 | 1019.0 |
| 20260903001521 | 67 | 92 | 0.0 | 5.0 | 0.00 | 0.01 | 0.00 | 74 | 1019.1 |
| 20260903000023 | 68 | 92 | 1.0 | 4.0 | 0.00 | 0.01 | 0.00 | 73 | 1019.3 |
| 20260902234521 | 68 | 202 | 0.0 | 4.0 | 0.00 | 0.01 | 0.00 | 73 | 1019.4 |
| 20260902233029 | 68 | 153 | 2.0 | 5.0 | 0.00 | 0.01 | 0.00 | 74 | 1019.4 |
| 20260902231519 | 69 | 168 | 0.0 | 4.0 | 0.00 | 0.01 | 0.00 | 72 | 1019.8 |
| 20260902230020 | 69 | 111 | 0.0 | 3.0 | 0.00 | 0.01 | 0.00 | 72 | 1020.4 |
| 20260902224518 | 69 | 73 | 1.0 | 3.0 | 0.00 | 0.01 | 0.00 | 72 | 1020.4 |
| 20260902223018 | 69 | 123 | 1.0 | 5.0 | 0.00 | 0.01 | 0.00 | 71 | 1020.3 |
| 20260902221519 | 69 | 135 | 0.0 | 4.0 | 0.00 | 0.01 | 0.00 | 70 | 1020.5 |
| 20260902220017 | 70 | 79 | 1.0 | 5.0 | 0.00 | 0.01 | 0.00 | 69 | 1020.1 |
| 20260902214516 | 70 | 129 | 1.0 | 5.0 | 0.00 | 0.01 | 0.00 | 69 | 1019.7 |
| 20260902213014 | 70 | 113 | 2.0 | 6.0 | 0.00 | 0.01 | 0.00 | 68 | 1019.6 |
| 20260902211513 | 70 | 167 | 1.0 | 5.0 | 0.00 | 0.01 | 0.00 | 70 | 1019.4 |
| 20260902210012 | 71 | 16 | 1.0 | 5.0 | 0.00 | 0.01 | 0.00 | 69 | 1019.7 |
| 20260902204520 | 71 | 98 | 3.0 | 8.0 | 0.00 | 0.02 | 0.00 | 67 | 1020.1 |
| 20260902203011 | 71 | 158 | 1.0 | 5.0 | 0.00 | 0.02 | 0.00 | 67 | 1020.3 |
| 20260902201519 | 71 | 141 | 2.0 | 6.0 | 0.00 | 0.02 | 0.00 | 66 | 1020.0 |
| 20260902200008 | 71 | 117 | 1.0 | 8.0 | 0.00 | 0.02 | 0.00 | 66 | 1020.1 |
| 20260902194510 | 72 | 199 | 0.0 | 6.0 | 0.00 | 0.02 | 0.00 | 61 | 1020.4 |
| 20260902193008 | 74 | 137 | 3.0 | 8.0 | 0.00 | 0.02 | 0.00 | 56 | 1020.7 |
| 20260902191513 | 74 | 129 | 2.0 | 8.0 | 0.00 | 0.02 | 0.00 | 58 | 1020.5 |
| 20260902190106 | 74 | 105 | 2.0 | 9.0 | 0.00 | 0.02 | 0.00 | 56 | 1020.6 |
| 20260902184504 | 75 | 196 | 2.0 | 8.0 | 0.00 | 0.02 | 0.00 | 56 | 1020.6 |
| 20260902183003 | 76 | 163 | 2.0 | 8.0 | 0.00 | 0.02 | 0.00 | 53 | 1020.7 |
| 20260902181615 | 74 | 26 | 2.0 | 8.0 | 0.00 | 0.02 | 0.00 | 58 | 1020.7 |
| 20260902174559 | 74 | 187 | 1.0 | 5.0 | 0.00 | 0.02 | 0.00 | 59 | 1020.8 |
| 20260902173056 | 73 | 142 | 4.0 | 8.0 | 0.00 | 0.02 | 0.00 | 57 | 1020.8 |
| 20260902171607 | 73 | 180 | 3.0 | 9.0 | 0.00 | 0.02 | 0.00 | 58 | 1020.8 |
| 20260902170055 | 73 | 38 | 1.0 | 6.0 | 0.00 | 0.02 | 0.00 | 59 | 1020.8 |
| 20260902164558 | 73 | 187 | 3.0 | 7.0 | 0.00 | 0.02 | 0.00 | 58 | 1020.8 |
| 20260902163052 | 73 | 170 | 1.0 | 7.0 | 0.00 | 0.02 | 0.00 | 58 | 1020.9 |
| 20260902161559 | 74 | 198 | 1.0 | 8.0 | 0.00 | 0.02 | 0.00 | 58 | 1021.3 |
| 20260902160049 | 74 | 199 | 3.0 | 6.0 | 0.00 | 0.02 | 0.00 | 57 | 1021.2 |
| 20260902154600 | 74 | 97 | 1.0 | 4.0 | 0.00 | 0.02 | 0.00 | 62 | 1021.3 |
| 20260902153045 | 74 | 99 | 1.0 | 3.0 | 0.00 | 0.02 | 0.00 | 63 | 1021.4 |
| 20260902151540 | 73 | 170 | 1.0 | 4.0 | 0.00 | 0.02 | 0.00 | 66 | 1021.3 |
| 20260902150036 | 73 | 130 | 2.0 | 5.0 | 0.00 | 0.02 | 0.00 | 67 | 1021.1 |
| 20260902144535 | 71 | 187 | 2.0 | 5.0 | 0.00 | 0.12 | 0.00 | 71 | 1021.2 |
| 20260902143029 | 70 | 111 | 2.0 | 8.0 | 0.00 | 0.12 | 0.00 | 71 | 1021.3 |
| 20260902141527 | 68 | 118 | 2.0 | 5.0 | 0.00 | 0.12 | 0.00 | 75 | 1021.0 |
| 20260902140032 | 68 | 88 | 1.0 | 5.0 | 0.00 | 0.12 | 0.00 | 77 | 1020.8 |
| 20260902134520 | 67 | 84 | 2.0 | 5.0 | 0.00 | 0.14 | 0.00 | 79 | 1020.7 |
| 20260902133018 | 67 | 128 | 1.0 | 5.0 | 0.00 | 0.14 | 0.00 | 83 | 1020.5 |
| 20260902131516 | 66 | 96 | 1.0 | 5.0 | 0.00 | 0.14 | 0.00 | 84 | 1020.6 |
| 20260902130013 | 66 | 90 | 1.0 | 6.0 | 0.00 | 0.14 | 0.00 | 85 | 1020.6 |
| 20260902124516 | 65 | 54 | 0.0 | 5.0 | 0.00 | 0.14 | 0.00 | 87 | 1020.7 |
| 20260902123009 | 65 | 75 | 0.0 | 3.0 | 0.00 | 0.14 | 0.00 | 87 | 1020.8 |
| 20260902121622 | 65 | 89 | 0.0 | 2.0 | 0.00 | 0.14 | 0.00 | 88 | 1020.8 |
| 20260902120107 | 64 | 12 | 1.0 | 5.0 | 0.00 | 0.14 | 0.00 | 88 | 1020.9 |
| 20260902114503 | 63 | 48 | 0.0 | 1.0 | 0.00 | 0.14 | 0.00 | 90 | 1020.8 |
| 20260902113059 | 63 | 75 | 0.0 | 3.0 | 0.00 | 0.14 | 0.00 | 91 | 1020.6 |
| 20260902111559 | 63 | 103 | 2.0 | 7.0 | 0.00 | 0.14 | 0.00 | 91 | 1020.6 |